Regional Weather Roundup
Issued by NWS Nashville, TN

Home | Current Version | Previous Version | Text Only | Print | Product List | Glossary On
Versions: 1 2 3 4 5 6 7 8 9 10 11 12 13 14 15 16 17 18 19 20 21 22 23 24 25 26 27 28 29 30 31 32 33 34 35 36 37 38 39 40 41 42 43 44 45 46 47 48 49 50
000
ASUS44 KOHX 242110
RWROHX
MIDDLE TENNESSEE HOURLY WEATHER ROUNDUP
NATIONAL WEATHER SERVICE NASHVILLE TN
400 PM CDT SAT SEP 24 2016

NOTE: "FAIR" INDICATES FEW OR NO CLOUDS BELOW 12,000 FEET WITH
NO SIGNIFICANT WEATHER AND/OR OBSTRUCTIONS TO VISIBILITY.

* THESE REPORTS ARE NOT UNDER NWS QUALITY CONTROL AND MAY NOT
  REPORT WEATHER SUCH AS PRECIPITATION AND FOG.


TNZ005>011-023>034-057-059-062>066-078-080-242200
...NORTHERN MIDDLE TENNESSEE...

CITY           SKY/WX    TMP DP  RH WIND       PRES   REMARKS
CLARKSVILLE    MOSUNNY   89  62  40 CALM      30.06F
CROSSVILLE     MOSUNNY   86  62  44 W8        30.12F
GALLATIN       SUNNY     90  63  40 N9        30.09F HX  90
DICKSON        SUNNY     87  64  46 N9        30.08F
LEBANON        SUNNY     88  61  40 N8        30.06F
NASHVILLE      MOSUNNY   90  60  36 NE8       30.07F
WEST NASHVILLE SUNNY     90  61  37 N7        30.06S
PORTLAND       SUNNY     88  64  45 NE9       30.08F
SMYRNA         MOSUNNY   91  62  37 NW6       30.07S HX  91
SPARTA         SUNNY     90  64  43 CALM      30.08S HX  91
SPRINGFIELD    SUNNY     88  63  42 N6        30.06F
$$
TNZ056-058-060-061-075>077-079-093>097-242200
...SOUTHERN MIDDLE TENNESSEE...

CITY           SKY/WX    TMP DP  RH WIND       PRES   REMARKS
COLUMBIA       SUNNY     90  63  40 NW5       30.05F HX  90
FAYETTEVILLE   PTSUNNY   90  61  37 NE9       30.06F
MCMINNVILLE    SUNNY     90  64  43 N8        30.08S HX  91
SHELBYVILLE    SUNNY     93  61  33 NW8       30.07F HX  93
TULLAHOMA      SUNNY     88  57  35 NW6       30.08F
WINCHESTER     SUNNY     90  59  35 CALM      30.06F
$$


...KEY TO REMARKS...
VSB - VISIBILITY IN MILES
WCI - WIND CHILL INDEX
HX  - HEAT INDEX




USA.gov is the U.S. government's official web portal to all federal, state and local government web resources and services.